contact:dominique.lefevre@mio.osupytheas.fr, maurice.libes@osupytheas.fr, didier.mallarino@osupytheas.fr
Project:EMSO http://www.emso-fr.org/EMSO-France
Depth: 2436.0 m
Title:EMSO Ligure Ouest : Data MII capteur AQUADOPP
Date,Latitude,Longitude,X_East,Y_North,Z_Up,Amplitude_X,Amplitude_Y,Amplitude_Z,Batterie,SoundSpeed,Heading,Pitch,Roll,Pressure,TIS,Speed,Direction
, degrees North, degrees East, m.s-1, m.s-1,m.s-1, 1, 1, 1, Volt, m.s-1, degree, degree, degree, dbar, degree_C, m.s-1, degree
2023-09-14T00:04:03,42.805,6.029,-0.01,0.03,-0.007,102.0,102.0,101.0,13.4,1505.2,350.3,-0.8,1.8,2471.467,13.29,0.031,341.6
2023-09-14T00:07:03,42.805,6.029,-0.028,0.01,0.0,103.0,100.0,102.0,13.4,1505.2,327.0,-0.8,1.8,2471.456,13.29,0.029,289.6
2023-09-14T00:10:03,42.805,6.029,-0.053,0.027,-0.033,103.0,102.0,102.0,13.4,1505.2,336.9,-0.8,1.8,2471.465,13.29,0.059,297.0
2023-09-14T00:13:03,42.805,6.029,-0.034,-0.009,-0.027,102.0,102.0,102.0,13.3,1505.2,329.5,-0.8,1.8,2471.455,13.29,0.035,255.2
2023-09-14T00:16:03,42.805,6.029,-0.021,0.003,-0.018,103.0,103.0,101.0,13.4,1505.2,345.9,-0.8,1.8,2471.436,13.29,0.021,278.1
2023-09-14T00:19:03,42.805,6.029,-0.029,0.019,-0.023,100.0,103.0,102.0,13.3,1505.2,345.9,-0.8,1.8,2471.438,13.29,0.034,303.2
2023-09-14T00:22:03,42.805,6.029,-0.026,0.014,-0.003,103.0,102.0,101.0,13.4,1505.2,345.6,-0.8,1.8,2471.427,13.29,0.029,298.3
2023-09-14T00:25:03,42.805,6.029,-0.014,0.008,-0.014,101.0,103.0,102.0,13.4,1505.2,351.0,-0.8,1.8,2471.398,13.29,0.016,299.7
2023-09-14T00:28:03,42.805,6.029,0.0,0.005,0.004,102.0,102.0,102.0,13.3,1505.2,339.1,-0.8,1.8,2471.416,13.29,0.005,0.0
2023-09-14T00:31:03,42.805,6.029,-0.029,0.004,-0.043,102.0,103.0,102.0,13.4,1505.2,331.6,-0.8,1.8,2471.432,13.29,0.029,277.8
2023-09-14T00:34:03,42.805,6.029,0.002,0.007,-0.012,104.0,102.0,101.0,13.4,1505.2,353.8,-0.8,1.8,2471.454,13.29,0.007,15.9
2023-09-14T00:37:03,42.805,6.029,0.004,0.005,-0.006,103.0,103.0,101.0,13.3,1505.2,333.9,-0.8,1.8,2471.468,13.29,0.006,38.7
2023-09-14T00:40:03,42.805,6.029,-0.011,0.024,-0.023,103.0,103.0,101.0,13.4,1505.2,345.9,-0.8,1.8,2471.417,13.29,0.026,335.4
2023-09-14T00:43:03,42.805,6.029,-0.026,0.005,-0.047,102.0,102.0,101.0,13.4,1505.2,339.4,-0.8,1.8,2471.406,13.29,0.026,280.9
2023-09-14T00:46:03,42.805,6.029,-0.015,0.01,-0.032,103.0,104.0,100.0,13.3,1505.2,349.1,-0.8,1.8,2471.397,13.29,0.018,303.7
2023-09-14T00:49:03,42.805,6.029,-0.043,0.029,0.019,103.0,103.0,101.0,13.3,1505.2,333.8,-0.8,1.8,2471.439,13.29,0.051,304.0
2023-09-14T00:52:03,42.805,6.029,-0.02,0.02,-0.026,102.0,103.0,102.0,13.3,1505.2,347.6,-0.8,1.8,2471.42,13.29,0.028,315.0
2023-09-14T00:55:03,42.805,6.029,-0.021,0.012,-0.04,103.0,102.0,102.0,13.4,1505.2,342.3,-0.8,1.8,2471.397,13.29,0.024,299.7
2023-09-14T00:58:03,42.805,6.029,-0.018,0.016,-0.017,104.0,102.0,102.0,13.4,1505.2,328.7,-0.7,1.8,2471.397,13.29,0.024,311.6
2023-09-14T01:04:03,42.805,6.029,-0.009,-0.014,-0.062,103.0,103.0,102.0,13.4,1505.2,337.9,-0.8,1.8,2471.483,13.29,0.016,212.7
2023-09-14T01:07:03,42.805,6.029,-0.016,0.012,-0.015,102.0,103.0,101.0,13.3,1505.2,327.8,-0.7,1.8,2471.415,13.29,0.02,306.9
2023-09-14T01:10:03,42.805,6.029,-0.025,0.008,-0.048,103.0,102.0,102.0,13.4,1505.2,345.4,-0.8,1.8,2471.444,13.29,0.026,287.7
2023-09-14T01:13:03,42.805,6.029,0.005,0.007,-0.025,103.0,101.0,102.0,13.3,1505.2,337.3,-0.7,1.8,2471.4,13.29,0.008,35.5
2023-09-14T01:16:03,42.805,6.029,-0.018,-0.002,-0.046,102.0,103.0,102.0,13.3,1505.2,331.6,-0.8,1.8,2471.43,13.29,0.018,263.7
2023-09-14T01:19:03,42.805,6.029,-0.033,0.014,0.005,103.0,101.0,103.0,13.4,1505.2,344.5,-0.8,1.8,2471.44,13.29,0.035,293.0
2023-09-14T01:22:03,42.805,6.029,-0.022,0.028,0.005,102.0,102.0,102.0,13.4,1505.2,343.7,-0.8,1.8,2471.409,13.29,0.035,321.8
2023-09-14T01:25:03,42.805,6.029,-0.023,-0.002,-0.021,102.0,101.0,102.0,13.3,1505.2,334.4,-0.8,1.8,2471.411,13.29,0.023,265.0
2023-09-14T01:28:03,42.805,6.029,-0.026,0.001,-0.026,102.0,103.0,102.0,13.4,1505.2,340.3,-0.8,1.8,2471.473,13.29,0.026,272.2
2023-09-14T01:31:03,42.805,6.029,0.008,0.003,-0.001,103.0,101.0,102.0,13.3,1505.2,353.8,-0.7,1.8,2471.407,13.29,0.008,69.4
2023-09-14T01:34:03,42.805,6.029,-0.022,0.014,-0.014,102.0,102.0,101.0,13.4,1505.2,337.8,-0.8,1.8,2471.39,13.29,0.026,302.5
2023-09-14T01:37:03,42.805,6.029,-0.011,-0.006,0.003,102.0,102.0,102.0,13.4,1505.2,347.3,-0.8,1.8,2471.374,13.29,0.012,241.4
2023-09-14T01:40:03,42.805,6.029,-0.013,0.018,-0.019,102.0,102.0,101.0,13.3,1505.2,348.0,-0.8,1.8,2471.42,13.29,0.022,324.2
2023-09-14T01:43:03,42.805,6.029,-0.013,-0.004,-0.014,103.0,102.0,101.0,13.4,1505.2,345.1,-0.8,1.8,2471.405,13.29,0.013,252.9
2023-09-14T01:46:03,42.805,6.029,-0.005,-0.022,-0.047,103.0,102.0,102.0,13.4,1505.2,326.0,-0.7,1.8,2471.392,13.29,0.022,192.8
2023-09-14T01:49:03,42.805,6.029,-0.016,0.015,-0.018,103.0,102.0,102.0,13.4,1505.2,327.0,-0.8,1.8,2471.401,13.29,0.021,313.1
2023-09-14T01:52:03,42.805,6.029,-0.007,-0.008,-0.035,102.0,102.0,103.0,13.3,1505.2,326.8,-0.8,1.8,2471.358,13.29,0.01,221.2
2023-09-14T01:55:03,42.805,6.029,0.005,0.018,-0.015,102.0,102.0,101.0,13.4,1505.2,328.2,-0.7,1.8,2471.426,13.29,0.018,15.5
2023-09-14T01:58:03,42.805,6.029,-0.028,0.007,-0.025,104.0,101.0,101.0,13.4,1505.2,333.4,-0.8,1.8,2471.406,13.29,0.028,284.0
2023-09-14T02:04:03,42.805,6.029,-0.011,-0.004,-0.015,102.0,102.0,102.0,13.4,1505.2,342.5,-0.7,1.8,2471.471,13.29,0.011,250.0
2023-09-14T02:07:03,42.805,6.029,-0.027,-0.001,-0.013,103.0,103.0,101.0,13.3,1505.2,343.0,-0.8,1.8,2471.431,13.29,0.027,267.9
2023-09-14T02:10:03,42.805,6.029,-0.016,-0.01,-0.016,103.0,101.0,102.0,13.4,1505.2,331.5,-0.8,1.8,2471.412,13.29,0.018,238.0
2023-09-14T02:13:03,42.805,6.029,-0.006,-0.014,-0.011,102.0,102.0,102.0,13.4,1505.2,342.2,-0.8,1.8,2471.443,13.29,0.015,203.2
2023-09-14T02:16:03,42.805,6.029,-0.008,-0.002,-0.035,103.0,102.0,102.0,13.3,1505.2,340.6,-0.8,1.8,2471.403,13.29,0.008,256.0
2023-09-14T02:19:03,42.805,6.029,-0.01,0.025,-0.022,104.0,103.0,102.0,13.3,1505.2,355.6,-0.8,1.8,2471.403,13.29,0.026,338.2
2023-09-14T02:22:03,42.805,6.029,-0.004,0.006,-0.036,102.0,103.0,102.0,13.4,1505.2,338.7,-0.7,1.8,2471.428,13.29,0.007,326.3
2023-09-14T02:25:03,42.805,6.029,0.0,-0.003,-0.039,103.0,101.0,102.0,13.3,1505.2,324.2,-0.8,1.8,2471.394,13.29,0.003,180.0
2023-09-14T02:28:03,42.805,6.029,-0.02,-0.006,-0.03,102.0,102.0,101.0,13.3,1505.2,333.0,-0.8,1.8,2471.396,13.29,0.02,253.3
2023-09-14T02:31:03,42.805,6.029,-0.008,0.004,-0.045,103.0,102.0,102.0,13.4,1505.2,340.0,-0.8,1.8,2471.405,13.29,0.008,296.6
2023-09-14T02:34:03,42.805,6.029,-0.01,0.0,-0.053,102.0,102.0,103.0,13.4,1505.2,332.9,-0.8,1.8,2471.407,13.29,0.01,270.0
2023-09-14T02:37:03,42.805,6.029,0.0,0.005,-0.023,103.0,103.0,102.0,13.4,1505.2,343.4,-0.8,1.8,2471.39,13.29,0.005,0.0
2023-09-14T02:40:03,42.805,6.029,-0.008,-0.003,-0.001,103.0,103.0,101.0,13.3,1505.2,329.9,-0.8,1.8,2471.381,13.29,0.008,249.4
2023-09-14T02:43:03,42.805,6.029,-0.006,-0.006,-0.045,102.0,104.0,101.0,13.4,1505.2,330.6,-0.8,1.8,2471.409,13.29,0.008,225.0
2023-09-14T02:46:03,42.805,6.029,-0.032,0.017,-0.066,102.0,102.0,102.0,13.4,1505.2,348.6,-0.7,1.8,2471.417,13.29,0.036,298.0
2023-09-14T02:49:03,42.805,6.029,0.007,0.002,-0.032,103.0,102.0,101.0,13.4,1505.2,341.9,-0.8,1.8,2471.395,13.29,0.007,74.1
2023-09-14T02:52:03,42.805,6.029,-0.005,0.001,-0.029,103.0,102.0,102.0,13.4,1505.2,353.1,-0.8,1.8,2471.391,13.29,0.005,281.3
2023-09-14T02:55:03,42.805,6.029,-0.028,0.017,-0.039,104.0,102.0,101.0,13.4,1505.2,351.1,-0.8,1.8,2471.428,13.29,0.032,301.3
2023-09-14T02:58:03,42.805,6.029,-0.005,-0.027,-0.068,103.0,103.0,101.0,13.4,1505.2,324.9,-0.8,1.8,2471.421,13.29,0.027,190.5
2023-09-14T03:04:03,42.805,6.029,-0.019,0.004,-0.044,103.0,103.0,102.0,13.4,1505.2,344.1,-0.8,1.8,2471.445,13.29,0.019,281.9
2023-09-14T03:07:03,42.805,6.029,0.004,0.01,-0.033,102.0,103.0,101.0,13.4,1505.2,347.6,-0.8,1.8,2471.445,13.29,0.01,21.8
2023-09-14T03:10:03,42.805,6.029,-0.031,-0.001,-0.058,103.0,101.0,101.0,13.4,1505.2,348.4,-0.8,1.8,2471.47,13.29,0.031,268.2
2023-09-14T03:13:03,42.805,6.029,-0.012,0.009,-0.027,103.0,102.0,101.0,13.3,1505.2,341.8,-0.7,1.8,2471.463,13.29,0.015,306.9
2023-09-14T03:16:03,42.805,6.029,0.013,-0.014,0.001,102.0,102.0,102.0,13.3,1505.2,354.4,-0.8,1.8,2471.44,13.29,0.019,137.1
2023-09-14T03:19:03,42.805,6.029,0.016,0.001,-0.002,103.0,102.0,101.0,13.4,1505.2,332.4,-0.8,1.8,2471.452,13.29,0.016,86.4
2023-09-14T03:22:03,42.805,6.029,0.02,-0.005,-0.008,101.0,103.0,102.0,13.4,1505.2,334.8,-0.8,1.8,2471.469,13.29,0.02,104.0
2023-09-14T03:25:03,42.805,6.029,-0.025,-0.004,-0.027,103.0,102.0,101.0,13.4,1505.2,350.2,-0.8,1.8,2471.427,13.29,0.025,260.9
2023-09-14T03:28:03,42.805,6.029,-0.016,-0.007,-0.02,102.0,104.0,102.0,13.4,1505.2,323.3,-0.8,1.8,2471.442,13.29,0.017,246.4
2023-09-14T03:31:03,42.805,6.029,-0.017,0.003,-0.003,103.0,102.0,102.0,13.3,1505.2,342.8,-0.7,1.8,2471.44,13.29,0.017,280.0
2023-09-14T03:34:03,42.805,6.029,0.004,-0.007,-0.034,102.0,102.0,101.0,13.3,1505.2,333.9,-0.8,1.8,2471.471,13.29,0.008,150.3
2023-09-14T03:37:03,42.805,6.029,0.0,-0.013,-0.013,102.0,102.0,101.0,13.4,1505.2,334.9,-0.8,1.8,2471.441,13.29,0.013,180.0
2023-09-14T03:40:03,42.805,6.029,-0.001,-0.011,-0.018,103.0,102.0,101.0,13.4,1505.2,334.7,-0.8,1.8,2471.46,13.29,0.011,185.2
2023-09-14T03:43:03,42.805,6.029,0.001,0.023,0.011,103.0,102.0,102.0,13.4,1505.2,327.0,-0.8,1.8,2471.473,13.29,0.023,2.5
2023-09-14T03:46:03,42.805,6.029,-0.003,-0.016,-0.016,102.0,102.0,102.0,13.3,1505.2,328.0,-0.8,1.8,2471.476,13.29,0.016,190.6
2023-09-14T03:49:03,42.805,6.029,0.0,-0.013,0.005,103.0,100.0,102.0,13.4,1505.2,334.6,-0.8,1.8,2471.42,13.29,0.013,180.0
2023-09-14T03:52:03,42.805,6.029,-0.01,-0.001,-0.032,103.0,103.0,102.0,13.4,1505.2,335.4,-0.7,1.8,2471.479,13.29,0.01,264.3
2023-09-14T03:55:03,42.805,6.029,-0.005,-0.001,-0.042,105.0,101.0,102.0,13.3,1505.2,335.7,-0.7,1.8,2471.418,13.29,0.005,258.7
2023-09-14T03:58:03,42.805,6.029,-0.021,-0.009,-0.042,103.0,102.0,102.0,13.4,1505.2,338.0,-0.8,1.8,2471.451,13.29,0.022,246.8
2023-09-14T04:04:03,42.805,6.029,0.011,-0.019,-0.015,103.0,102.0,102.0,13.3,1505.2,329.2,-0.8,1.8,2471.521,13.29,0.021,149.9
2023-09-14T04:07:03,42.805,6.029,0.012,-0.012,-0.026,102.0,102.0,101.0,13.4,1505.2,345.4,-0.8,1.8,2471.532,13.29,0.016,135.0
2023-09-14T04:10:03,42.805,6.029,-0.006,-0.002,0.014,102.0,102.0,102.0,13.4,1505.2,335.5,-0.8,1.8,2471.502,13.29,0.006,251.6
2023-09-14T04:13:03,42.805,6.029,-0.007,0.005,-0.022,103.0,103.0,102.0,13.4,1505.2,334.9,-0.8,1.8,2471.491,13.29,0.008,305.5
2023-09-14T04:16:03,42.805,6.029,-0.024,-0.018,-0.035,103.0,102.0,102.0,13.4,1505.2,333.4,-0.7,1.8,2471.505,13.29,0.03,233.1
2023-09-14T04:19:03,42.805,6.029,-0.021,-0.007,-0.003,102.0,102.0,102.0,13.4,1505.2,344.5,-0.8,1.8,2471.536,13.29,0.022,251.6
2023-09-14T04:22:03,42.805,6.029,-0.04,0.012,-0.034,102.0,102.0,103.0,13.3,1505.2,343.1,-0.8,1.8,2471.499,13.29,0.041,286.7
2023-09-14T04:25:03,42.805,6.029,-0.007,-0.021,-0.05,102.0,102.0,101.0,13.4,1505.2,353.5,-0.8,1.8,2471.481,13.29,0.022,198.4
2023-09-14T04:28:03,42.805,6.029,-0.011,-0.004,-0.023,102.0,102.0,101.0,13.3,1505.2,338.4,-0.8,1.8,2471.471,13.29,0.011,250.0
2023-09-14T04:31:03,42.805,6.029,-0.012,0.009,-0.022,103.0,104.0,101.0,13.4,1505.2,334.9,-0.8,1.8,2471.494,13.29,0.015,306.9
2023-09-14T04:34:03,42.805,6.029,0.016,-0.027,-0.037,103.0,102.0,101.0,13.3,1505.2,331.1,-0.7,1.8,2471.48,13.29,0.031,149.3
2023-09-14T04:37:03,42.805,6.029,-0.031,-0.007,-0.041,102.0,103.0,101.0,13.3,1505.2,352.0,-0.7,1.8,2471.469,13.29,0.031,257.3
2023-09-14T04:40:03,42.805,6.029,-0.003,-0.01,0.004,104.0,102.0,101.0,13.3,1505.2,347.4,-0.7,1.8,2471.481,13.29,0.01,196.7
2023-09-14T04:43:03,42.805,6.029,-0.012,-0.008,-0.037,102.0,102.0,101.0,13.4,1505.2,351.8,-0.8,1.8,2471.477,13.29,0.014,236.3
2023-09-14T04:46:03,42.805,6.029,-0.018,0.016,-0.008,103.0,102.0,101.0,13.3,1505.2,326.5,-0.8,1.8,2471.489,13.29,0.024,311.6
2023-09-14T04:49:03,42.805,6.029,0.011,-0.023,-0.001,103.0,102.0,102.0,13.4,1505.2,335.9,-0.8,1.8,2471.472,13.29,0.025,154.4
2023-09-14T04:52:03,42.805,6.029,-0.019,0.003,-0.02,101.0,102.0,103.0,13.4,1505.2,352.4,-0.8,1.8,2471.478,13.29,0.019,279.0
2023-09-14T04:55:03,42.805,6.029,-0.006,-0.012,-0.015,103.0,102.0,101.0,13.4,1505.2,337.9,-0.7,1.8,2471.501,13.29,0.013,206.6
2023-09-14T04:58:03,42.805,6.029,0.014,-0.022,-0.042,102.0,103.0,102.0,13.3,1505.2,335.9,-0.8,1.8,2471.47,13.29,0.026,147.5
2023-09-14T05:04:03,42.805,6.029,-0.008,-0.005,-0.048,102.0,102.0,102.0,13.3,1505.2,354.6,-0.8,1.9,2471.541,13.29,0.009,238.0
2023-09-14T05:07:03,42.805,6.029,0.003,-0.005,-0.031,102.0,104.0,102.0,13.4,1505.2,327.3,-0.8,1.8,2471.596,13.29,0.005,149.0
2023-09-14T05:10:03,42.805,6.029,-0.035,-0.009,0.001,102.0,102.0,102.0,13.3,1505.2,330.1,-0.7,1.8,2471.558,13.29,0.036,255.6
2023-09-14T05:13:03,42.805,6.029,-0.021,-0.013,-0.01,102.0,102.0,102.0,13.4,1505.2,332.4,-0.8,1.8,2471.515,13.29,0.024,238.2
2023-09-14T05:16:03,42.805,6.029,-0.015,-0.019,-0.031,104.0,102.0,101.0,13.3,1505.2,335.2,-0.7,1.8,2471.53,13.29,0.024,218.3
2023-09-14T05:19:03,42.805,6.029,-0.012,-0.037,-0.06,103.0,102.0,103.0,13.3,1505.2,340.8,-0.8,1.8,2471.537,13.29,0.038,198.0
2023-09-14T05:22:03,42.805,6.029,0.002,-0.021,-0.04,102.0,103.0,101.0,13.4,1505.2,330.2,-0.8,1.8,2471.527,13.29,0.021,174.6
2023-09-14T05:25:03,42.805,6.029,0.002,-0.018,-0.025,102.0,102.0,102.0,13.3,1505.2,334.6,-0.7,1.8,2471.494,13.29,0.018,173.7
2023-09-14T05:28:03,42.805,6.029,-0.017,-0.012,-0.042,103.0,102.0,101.0,13.4,1505.2,353.0,-0.8,1.8,2471.522,13.29,0.02,234.8
2023-09-14T05:31:03,42.805,6.029,-0.022,-0.01,-0.018,103.0,102.0,101.0,13.4,1505.2,343.7,-0.8,1.8,2471.535,13.29,0.024,245.6
2023-09-14T05:34:03,42.805,6.029,-0.004,0.004,-0.016,102.0,103.0,102.0,13.3,1505.2,346.5,-0.8,1.8,2471.534,13.29,0.005,315.0
2023-09-14T05:37:03,42.805,6.029,-0.019,0.0,-0.025,104.0,103.0,101.0,13.3,1505.2,347.2,-0.7,1.8,2471.504,13.29,0.019,270.0
2023-09-14T05:40:03,42.805,6.029,0.004,-0.013,-0.003,103.0,102.0,101.0,13.3,1505.2,338.4,-0.7,1.8,2471.527,13.29,0.013,162.9
2023-09-14T05:43:03,42.805,6.029,-0.022,-0.007,-0.041,103.0,102.0,102.0,13.4,1505.2,335.3,-0.8,1.8,2471.489,13.29,0.023,252.4
2023-09-14T05:46:03,42.805,6.029,-0.036,-0.001,-0.056,103.0,101.0,102.0,13.3,1505.2,325.3,-0.7,1.8,2471.527,13.29,0.036,268.4
2023-09-14T05:49:03,42.805,6.029,-0.051,0.0,-0.037,102.0,104.0,101.0,13.4,1505.2,333.4,-0.8,1.8,2471.535,13.29,0.051,270.0
2023-09-14T05:52:03,42.805,6.029,-0.025,-0.021,-0.049,102.0,102.0,102.0,13.3,1505.2,341.5,-0.8,1.8,2471.503,13.29,0.032,230.0
2023-09-14T05:55:03,42.805,6.029,-0.02,-0.007,-0.007,102.0,101.0,101.0,13.4,1505.2,327.0,-0.8,1.8,2471.558,13.29,0.021,250.7
2023-09-14T05:58:03,42.805,6.029,-0.026,0.005,-0.026,102.0,102.0,101.0,13.4,1505.2,348.8,-0.8,1.8,2471.551,13.29,0.026,280.9
2023-09-14T06:04:03,42.805,6.029,-0.021,0.007,-0.048,103.0,102.0,101.0,13.3,1505.2,338.5,-0.8,1.8,2471.595,13.28,0.022,288.4
2023-09-14T06:07:02,42.805,6.029,-0.003,0.003,-0.008,104.0,102.0,101.0,13.3,1505.2,346.5,-0.8,1.8,2471.527,13.29,0.004,315.0
2023-09-14T06:10:03,42.805,6.029,-0.007,-0.013,-0.051,102.0,101.0,102.0,13.3,1505.2,339.0,-0.8,1.8,2471.574,13.29,0.014,208.3
2023-09-14T06:13:03,42.805,6.029,-0.021,-0.008,-0.047,102.0,102.0,101.0,13.4,1505.2,335.2,-0.8,1.8,2471.554,13.29,0.022,249.1
2023-09-14T06:16:03,42.805,6.029,-0.025,-0.005,-0.053,102.0,102.0,101.0,13.4,1505.2,352.0,-0.8,1.8,2471.562,13.29,0.025,258.7
2023-09-14T06:19:02,42.805,6.029,-0.018,0.002,-0.041,103.0,101.0,101.0,13.3,1505.2,326.8,-0.8,1.8,2471.549,13.29,0.018,276.3
2023-09-14T06:22:03,42.805,6.029,-0.031,0.0,-0.027,103.0,102.0,101.0,13.4,1505.2,334.3,-0.8,1.8,2471.532,13.29,0.03,270.0
2023-09-14T06:25:03,42.805,6.029,-0.024,-0.008,-0.043,103.0,102.0,101.0,13.4,1505.2,344.0,-0.8,1.8,2471.579,13.29,0.025,251.6
2023-09-14T06:28:03,42.805,6.029,-0.023,-0.002,-0.014,102.0,101.0,102.0,13.3,1505.2,329.8,-0.8,1.8,2471.546,13.29,0.023,265.0
2023-09-14T06:31:03,42.805,6.029,-0.015,-0.015,-0.028,104.0,103.0,100.0,13.4,1505.2,349.5,-0.8,1.8,2471.524,13.29,0.021,225.0
2023-09-14T06:34:03,42.805,6.029,-0.014,0.0,-0.014,103.0,101.0,101.0,13.4,1505.2,329.5,-0.7,1.8,2471.533,13.29,0.014,270.0
2023-09-14T06:37:02,42.805,6.029,-0.042,0.003,-0.043,102.0,102.0,101.0,13.4,1505.2,331.6,-0.8,1.8,2471.54,13.29,0.042,274.1
2023-09-14T06:40:02,42.805,6.029,0.017,-0.007,-0.033,102.0,101.0,101.0,13.3,1505.2,336.2,-0.8,1.8,2471.53,13.29,0.018,112.4
2023-09-14T06:43:02,42.805,6.029,-0.008,0.004,-0.044,102.0,102.0,101.0,13.4,1505.2,326.8,-0.7,1.8,2471.533,13.29,0.008,296.6
2023-09-14T06:46:02,42.805,6.029,-0.035,-0.01,-0.058,103.0,101.0,101.0,13.4,1505.2,334.4,-0.8,1.8,2471.528,13.29,0.036,254.1
2023-09-14T06:49:02,42.805,6.029,0.001,0.004,0.003,103.0,102.0,101.0,13.4,1505.2,341.5,-0.8,1.8,2471.521,13.29,0.004,14.0
2023-09-14T06:52:02,42.805,6.029,-0.041,-0.006,-0.05,101.0,103.0,101.0,13.4,1505.2,327.0,-0.8,1.8,2471.564,13.29,0.041,261.7
2023-09-14T06:55:02,42.805,6.029,-0.008,-0.002,-0.009,102.0,102.0,101.0,13.3,1505.2,347.8,-0.7,1.8,2471.52,13.29,0.008,256.0
2023-09-14T06:58:02,42.805,6.029,-0.013,-0.001,-0.04,102.0,101.0,102.0,13.4,1505.2,352.3,-0.8,1.8,2471.553,13.29,0.013,265.6
2023-09-14T07:04:02,42.805,6.029,-0.009,0.014,-0.027,102.0,102.0,102.0,13.4,1505.2,345.9,-0.8,1.8,2471.558,13.28,0.016,327.3
2023-09-14T07:07:02,42.805,6.029,-0.027,0.008,0.003,101.0,103.0,101.0,13.4,1505.2,355.9,-0.8,1.8,2471.581,13.29,0.028,286.5
2023-09-14T07:10:03,42.805,6.029,-0.023,-0.016,-0.018,102.0,103.0,101.0,13.4,1505.2,339.3,-0.7,1.8,2471.601,13.29,0.028,235.2
2023-09-14T07:13:02,42.805,6.029,-0.018,-0.008,-0.034,102.0,102.0,101.0,13.3,1505.2,353.0,-0.7,1.8,2471.595,13.29,0.019,246.0
2023-09-14T07:16:02,42.805,6.029,-0.019,-0.025,-0.039,103.0,101.0,102.0,13.4,1505.2,337.5,-0.8,1.8,2471.598,13.29,0.031,217.2
2023-09-14T07:19:02,42.805,6.029,-0.006,-0.012,-0.045,102.0,102.0,101.0,13.4,1505.2,331.9,-0.7,1.8,2471.538,13.29,0.013,206.6
2023-09-14T07:22:02,42.805,6.029,-0.019,-0.018,-0.044,102.0,101.0,101.0,13.4,1505.2,350.3,-0.8,1.8,2471.555,13.29,0.026,226.5
2023-09-14T07:25:03,42.805,6.029,-0.034,-0.007,-0.024,102.0,101.0,101.0,13.3,1505.2,329.0,-0.7,1.8,2471.547,13.29,0.034,258.4
2023-09-14T07:28:02,42.805,6.029,0.0,-0.001,-0.037,102.0,103.0,101.0,13.4,1505.2,342.6,-0.8,1.8,2471.535,13.29,0.001,180.0
2023-09-14T07:31:02,42.805,6.029,-0.005,-0.03,-0.059,102.0,101.0,101.0,13.4,1505.2,353.1,-0.7,1.8,2471.544,13.29,0.03,189.5
2023-09-14T07:34:03,42.805,6.029,-0.002,-0.019,-0.029,102.0,101.0,101.0,13.4,1505.2,326.3,-0.7,1.8,2471.551,13.29,0.019,186.0
2023-09-14T07:37:02,42.805,6.029,-0.014,-0.013,-0.024,102.0,102.0,102.0,13.4,1505.2,343.9,-0.8,1.8,2471.585,13.29,0.019,227.1
2023-09-14T07:40:02,42.805,6.029,-0.001,-0.008,-0.015,103.0,102.0,101.0,13.4,1505.2,322.3,-0.8,1.8,2471.502,13.29,0.008,187.1
2023-09-14T07:43:02,42.805,6.029,-0.016,-0.013,-0.035,103.0,101.0,101.0,13.4,1505.2,340.5,-0.8,1.8,2471.549,13.29,0.02,230.9
2023-09-14T07:46:03,42.805,6.029,-0.013,0.008,-0.012,102.0,101.0,101.0,13.4,1505.2,344.5,-0.8,1.8,2471.561,13.29,0.015,301.6
2023-09-14T07:49:03,42.805,6.029,-0.01,-0.022,-0.06,102.0,103.0,101.0,13.4,1505.2,329.3,-0.8,1.8,2471.572,13.29,0.024,204.4
2023-09-14T07:52:02,42.805,6.029,-0.019,-0.004,-0.017,102.0,101.0,101.0,13.4,1505.2,327.4,-0.8,1.8,2471.538,13.29,0.019,258.1
2023-09-14T07:55:03,42.805,6.029,-0.019,-0.016,-0.038,103.0,101.0,101.0,13.4,1505.2,337.8,-0.7,1.8,2471.546,13.29,0.024,229.9
2023-09-14T07:58:03,42.805,6.029,-0.014,-0.013,-0.031,102.0,101.0,101.0,13.4,1505.2,345.4,-0.8,1.8,2471.524,13.29,0.019,227.1
2023-09-14T08:04:02,42.805,6.029,-0.027,-0.001,-0.032,102.0,101.0,101.0,13.4,1505.2,339.3,-0.8,1.8,2471.545,13.28,0.027,267.9
2023-09-14T08:07:02,42.805,6.029,-0.005,0.005,-0.004,104.0,102.0,100.0,13.4,1505.2,341.8,-0.8,1.8,2471.539,13.29,0.007,315.0
2023-09-14T08:10:03,42.805,6.029,-0.001,-0.002,-0.034,103.0,103.0,101.0,13.4,1505.2,353.1,-0.8,1.8,2471.557,13.29,0.002,206.6
2023-09-14T08:13:03,42.805,6.029,-0.015,-0.01,-0.028,103.0,101.0,101.0,13.4,1505.2,333.9,-0.7,1.8,2471.545,13.29,0.018,236.3
2023-09-14T08:16:03,42.805,6.029,-0.01,0.007,-0.033,102.0,103.0,102.0,13.4,1505.2,331.5,-0.7,1.8,2471.525,13.29,0.012,305.0
2023-09-14T08:19:03,42.805,6.029,-0.008,-0.015,-0.045,103.0,102.0,101.0,13.4,1505.2,326.5,-0.8,1.8,2471.527,13.29,0.017,208.1
2023-09-14T08:22:02,42.805,6.029,0.0,-0.008,0.001,102.0,103.0,101.0,13.3,1505.2,334.6,-0.8,1.8,2471.514,13.29,0.008,180.0
2023-09-14T08:25:03,42.805,6.029,-0.027,0.003,-0.01,102.0,101.0,102.0,13.4,1505.2,339.7,-0.8,1.8,2471.513,13.29,0.027,276.3
2023-09-14T08:28:03,42.805,6.029,-0.019,-0.011,-0.041,102.0,102.0,102.0,13.4,1505.2,328.5,-0.8,1.8,2471.528,13.29,0.021,239.9
2023-09-14T08:31:03,42.805,6.029,-0.012,-0.022,-0.029,102.0,103.0,101.0,13.4,1505.2,334.7,-0.8,1.8,2471.525,13.29,0.025,208.6
2023-09-14T08:34:03,42.805,6.029,-0.01,-0.034,-0.075,102.0,102.0,101.0,13.3,1505.2,353.2,-0.8,1.8,2471.512,13.29,0.035,196.4
2023-09-14T08:37:02,42.805,6.029,-0.02,0.024,-0.026,102.0,102.0,102.0,13.4,1505.2,337.1,-0.8,1.8,2471.528,13.29,0.031,320.2
2023-09-14T08:40:03,42.805,6.029,-0.021,-0.028,-0.055,104.0,102.0,101.0,13.4,1505.2,329.7,-0.8,1.8,2471.495,13.29,0.035,216.9
2023-09-14T08:43:03,42.805,6.029,-0.026,-0.009,-0.043,102.0,103.0,102.0,13.3,1505.2,355.5,-0.8,1.8,2471.522,13.29,0.027,250.9
2023-09-14T08:46:03,42.805,6.029,-0.017,-0.003,-0.031,103.0,102.0,102.0,13.4,1505.2,341.9,-0.7,1.8,2471.528,13.29,0.017,260.0
2023-09-14T08:49:03,42.805,6.029,-0.013,-0.013,-0.024,102.0,102.0,101.0,13.4,1505.2,330.2,-0.8,1.8,2471.497,13.29,0.018,225.0
2023-09-14T08:52:02,42.805,6.029,0.014,-0.013,-0.016,102.0,103.0,101.0,13.4,1505.2,353.0,-0.8,1.8,2471.492,13.29,0.019,132.9
2023-09-14T08:55:03,42.805,6.029,-0.018,-0.008,-0.022,102.0,102.0,101.0,13.3,1505.2,344.8,-0.7,1.8,2471.517,13.29,0.019,246.0
2023-09-14T08:58:03,42.805,6.029,-0.033,0.01,-0.034,102.0,102.0,101.0,13.3,1505.2,343.4,-0.8,1.8,2471.473,13.29,0.034,286.9
2023-09-14T09:04:02,42.805,6.029,-0.031,0.012,-0.006,103.0,102.0,101.0,13.4,1505.2,350.2,-0.8,1.8,2471.529,13.28,0.033,291.2
2023-09-14T09:07:02,42.805,6.029,-0.021,-0.007,-0.032,102.0,103.0,102.0,13.3,1505.2,331.9,-0.8,1.8,2471.537,13.29,0.022,251.6
2023-09-14T09:10:03,42.805,6.029,-0.024,-0.004,-0.038,102.0,102.0,102.0,13.4,1505.2,333.8,-0.8,1.8,2471.503,13.29,0.024,260.5
2023-09-14T09:13:03,42.805,6.029,-0.02,0.006,-0.038,103.0,102.0,101.0,13.4,1505.2,352.4,-0.8,1.8,2471.491,13.29,0.02,286.7
2023-09-14T09:16:03,42.805,6.029,-0.019,0.005,-0.002,104.0,103.0,102.0,13.4,1505.2,337.9,-0.8,1.8,2471.514,13.29,0.019,284.7
2023-09-14T09:19:03,42.805,6.029,-0.025,0.0,-0.039,102.0,102.0,102.0,13.4,1505.2,347.3,-0.8,1.8,2471.496,13.29,0.025,270.0
2023-09-14T09:22:02,42.805,6.029,-0.035,0.014,-0.045,102.0,102.0,101.0,13.4,1505.2,335.5,-0.8,1.8,2471.502,13.29,0.037,291.8
2023-09-14T09:25:03,42.805,6.029,-0.018,0.0,-0.028,103.0,102.0,102.0,13.4,1505.2,353.4,-0.8,1.8,2471.495,13.29,0.018,270.0
2023-09-14T09:28:03,42.805,6.029,-0.004,-0.014,-0.041,102.0,102.0,102.0,13.3,1505.2,326.3,-0.8,1.8,2471.489,13.29,0.014,195.9
2023-09-14T09:31:03,42.805,6.029,-0.014,-0.009,-0.048,103.0,102.0,102.0,13.4,1505.2,329.4,-0.8,1.8,2471.47,13.29,0.016,237.3
2023-09-14T09:34:03,42.805,6.029,-0.04,0.004,-0.029,103.0,102.0,102.0,13.4,1505.2,347.8,-0.8,1.8,2471.504,13.29,0.04,275.7
2023-09-14T09:37:02,42.805,6.029,-0.034,-0.012,-0.039,103.0,102.0,102.0,13.4,1505.2,350.3,-0.8,1.8,2471.496,13.29,0.036,250.6
2023-09-14T09:40:03,42.805,6.029,-0.032,-0.012,-0.053,103.0,103.0,102.0,13.4,1505.2,334.4,-0.8,1.8,2471.52,13.29,0.034,249.4
2023-09-14T09:43:03,42.805,6.029,0.004,0.019,0.012,103.0,102.0,101.0,13.4,1505.2,339.7,-0.8,1.8,2471.467,13.29,0.019,11.9
2023-09-14T09:46:03,42.805,6.029,-0.005,-0.013,-0.004,103.0,102.0,102.0,13.4,1505.2,334.4,-0.8,1.8,2471.444,13.29,0.013,201.0
2023-09-14T09:49:03,42.805,6.029,-0.021,-0.014,-0.06,103.0,102.0,101.0,13.4,1505.2,331.2,-0.8,1.8,2471.488,13.29,0.025,236.3
2023-09-14T09:52:02,42.805,6.029,-0.021,0.019,-0.04,103.0,103.0,101.0,13.4,1505.2,345.9,-0.7,1.8,2471.449,13.29,0.028,312.1